{"data":{"norad_id":53861,"epoch":"2026-05-25T03:46:15.797856Z","epoch_age_seconds":54746,"freshness":"FRESH","line1":"1 53861U 22114AV  26145.15712729 -.00000036  00000+0  15851-4 0  9998","line2":"2 53861  53.2131 301.0048 0001221  95.3273 264.7859 15.08837665204658","mean_motion":15.08837665,"eccentricity":0.0001221,"inclination_deg":53.2131,"raan_deg":301.0048,"arg_perigee_deg":95.3273,"mean_anomaly_deg":264.7859,"bstar":1.5851e-5,"rev_number":20465,"period_min":95.437702372044,"perigee_km":538.90585206724,"apogee_km":540.59520020112,"semimajor_km":6917.8875261342,"source":"CELESTRAK","updated_at":"2026-05-25T13:38:17.578843Z"}}